GW4277 Weather Reports


time (UTC)temp
C
wind
direction
speed
KPH
gust
KPH
rain 1hr
cm
rain 24hr
cm
rain mn
cm
humidity
%
barometer
mb
20260504150924 17 88 19.3 24.1 0.00 0.00 0.00 38 1004.4
20260504150421 17 102 12.9 19.3 0.00 0.00 0.00 41 1003.9
20260504140846 16 236 9.7 11.3 0.00 0.00 0.00 50 1003.2
20260504140342 16 104 19.3 22.5 0.00 0.00 0.00 50 1003.2
20260504130811 14 332 20.9 24.1 0.00 0.00 0.00 59 1002.7
20260504130307 13 357 14.5 16.1 0.00 0.00 0.00 61 1002.5
20260504120231 10 30 3.2 4.8 0.00 0.00 0.00 67 1001.7
20260504110658 10 337 4.8 4.8 0.00 0.00 0.00 66 1001.5
20260504110154 10 85 4.8 8.0 0.00 0.00 0.00 66 1001.7
20260504100119 11 215 6.4 8.0 0.00 0.00 0.00 63 1002.3
20260504081512 10 193 4.8 4.8 0.00 0.00 0.00 60 1003.4
20260504081007 10 326 4.8 8.0 0.00 0.00 0.00 60 1003.2
20260504080504 10 304 4.8 8.0 0.00 0.00 0.00 60 1003.3
20260504050305 12 85 3.2 4.8 0.00 0.00 0.00 51 1005.7
20260504045802 12 45 4.8 4.8 0.00 0.00 0.00 50 1005.8
20260504045257 12 109 0.0 0.0 0.00 0.00 0.00 51 1005.7
20260504044754 12 126 0.0 0.0 0.00 0.00 0.00 50 1005.7
20260504044252 12 78 3.2 3.2 0.00 0.00 0.00 49 1005.7
20260504043749 13 95 3.2 3.2 0.00 0.00 0.00 48 1005.7
20260504043246 13 124 0.0 0.0 0.00 0.00 0.00 49 1006.0
20260504042744 13 122 0.0 0.0 0.00 0.00 0.00 49 1006.0
20260504042240 13 148 1.6 3.2 0.00 0.00 0.00 48 1006.2
20260504041736 13 132 0.0 3.2 0.00 0.00 0.00 49 1006.4
20260504041232 13 213 3.2 4.8 0.00 0.00 0.00 49 1006.3
20260504040728 13 123 1.6 3.2 0.00 0.00 0.00 48 1006.6
20260504040226 13 114 3.2 3.2 0.00 0.00 0.00 48 1006.7
20260504035722 13 212 4.8 4.8 0.00 0.00 0.00 47 1006.6
20260504035219 13 132 0.0 3.2 0.00 0.00 0.00 48 1006.7
20260504034716 13 121 0.0 0.0 0.00 0.00 0.00 48 1006.7
20260504034213 13 122 0.0 0.0 0.00 0.00 0.00 48 1006.9
20260504033706 13 123 0.0 3.2 0.00 0.00 0.00 47 1007.0
20260504033203 14 116 1.6 3.2 0.00 0.00 0.00 47 1007.0
20260504032659 15 116 0.0 0.0 0.00 0.00 0.00 46 1007.1
20260504032157 15 59 3.2 3.2 0.00 0.00 0.00 45 1007.1
20260504031653 15 177 3.2 3.2 0.00 0.00 0.00 44 1007.3
20260504031149 15 115 3.2 3.2 0.00 0.00 0.00 43 1007.3
20260504030646 16 94 3.2 3.2 0.00 0.00 0.00 43 1007.3
20260504030137 16 44 3.2 4.8 0.00 0.00 0.00 42 1007.3
20260504025634 16 355 3.2 4.8 0.00 0.00 0.00 42 1007.2
20260504025131 16 55 3.2 4.8 0.00 0.00 0.00 41 1007.5
20260504024628 16 48 4.8 8.0 0.00 0.00 0.00 41 1007.5
20260504024124 16 103 3.2 3.2 0.00 0.00 0.00 41 1007.4
20260504023621 17 14 4.8 8.0 0.00 0.00 0.00 41 1007.4
20260504023116 17 340 4.8 4.8 0.00 0.00 0.00 41 1007.4
20260504022613 17 98 3.2 4.8 0.00 0.00 0.00 41 1007.4
20260504022109 16 74 0.0 3.2 0.00 0.00 0.00 41 1007.4
20260504021608 16 101 0.0 3.2 0.00 0.00 0.00 41 1007.5
20260504021104 17 82 0.0 3.2 0.00 0.00 0.00 41 1007.4
20260504020600 17 128 0.0 0.0 0.00 0.00 0.00 41 1007.4
20260504020057 17 98 1.6 3.2 0.00 0.00 0.00 39 1007.6
20260504015554 18 125 1.6 4.8 0.00 0.00 0.00 39 1007.5
20260504015049 18 323 4.8 8.0 0.00 0.00 0.00 38 1007.5
20260504014546 18 326 4.8 4.8 0.00 0.00 0.00 38 1007.4
20260504014043 18 130 0.0 0.0 0.00 0.00 0.00 38 1007.6
20260504013541 18 25 3.2 4.8 0.00 0.00 0.00 37 1007.5
20260504013037 18 103 3.2 3.2 0.00 0.00 0.00 37 1007.8
20260504012535 19 57 3.2 3.2 0.00 0.00 0.00 37 1007.8
20260504012028 19 163 4.8 8.0 0.00 0.00 0.00 36 1007.6
20260504011524 20 108 4.8 4.8 0.00 0.00 0.00 36 1007.6
20260504011020 20 327 3.2 4.8 0.00 0.00 0.00 36 1007.9
20260504010515 20 330 6.4 8.0 0.00 0.00 0.00 35 1007.6
20260504010011 20 331 9.7 14.5 0.00 0.00 0.00 34 1007.8
20260504005508 21 346 8.0 11.3 0.00 0.00 0.00 33 1007.9
20260504005006 21 136 4.8 4.8 0.00 0.00 0.00 33 1007.8
20260504004503 21 308 14.5 22.5 0.00 0.00 0.00 32 1007.8
20260504004000 21 238 4.8 8.0 0.00 0.00 0.00 32 1007.9
20260504003456 21 343 6.4 8.0 0.00 0.00 0.00 33 1007.9
20260504002953 21 303 8.0 14.5 0.00 0.00 0.00 33 1007.9
20260504002450 21 347 9.7 14.5 0.00 0.00 0.00 32 1007.9
20260504001948 21 344 3.2 4.8 0.00 0.00 0.00 32 1008.0
20260504001445 21 317 9.7 14.5 0.00 0.00 0.00 31 1008.0
20260504000942 21 276 12.9 19.3 0.00 0.00 0.00 32 1008.1
20260504000439 22 193 9.7 11.3 0.00 0.00 0.00 32 1008.1
20260503235936 21 310 17.7 24.1 0.00 0.00 0.00 31 1008.3
20260503235433 22 339 19.3 24.1 0.00 0.00 0.00 31 1008.2
20260503234931 22 340 12.9 16.1 0.00 0.00 0.00 32 1008.4
20260503234428 22 18 6.4 11.3 0.00 0.00 0.00 31 1008.4
20260503233926 22 73 4.8 8.0 0.00 0.00 0.00 31 1008.4
20260503233422 22 346 16.1 16.1 0.00 0.00 0.00 31 1008.6
20260503232919 22 327 17.7 19.3 0.00 0.00 0.00 31 1008.6
20260503232416 22 322 17.7 22.5 0.00 0.00 0.00 31 1008.5
20260503231914 22 68 8.0 11.3 0.00 0.00 0.00 32 1008.7
20260503231411 22 270 9.7 14.5 0.00 0.00 0.00 31 1008.8
20260503230907 22 322 9.7 14.5 0.00 0.00 0.00 32 1008.8
20260503230403 22 65 8.0 11.3 0.00 0.00 0.00 31 1009.0
20260503225901 22 307 11.3 14.5 0.00 0.00 0.00 33 1008.7
20260503225357 22 336 9.7 11.3 0.00 0.00 0.00 33 1008.9
20260503224853 22 265 19.3 27.4 0.00 0.00 0.00 32 1008.9
20260503224351 22 274 6.4 11.3 0.00 0.00 0.00 31 1009.0
20260503223848 22 329 16.1 19.3 0.00 0.00 0.00 30 1009.0
20260503223346 22 10 14.5 19.3 0.00 0.00 0.00 30 1008.9
20260503222841 22 326 12.9 16.1 0.00 0.00 0.00 31 1009.1
20260503222340 22 338 17.7 19.3 0.00 0.00 0.00 31 1008.9
20260503221837 22 80 3.2 4.8 0.00 0.00 0.00 32 1009.1
20260503221337 22 151 6.4 11.3 0.00 0.00 0.00 33 1009.1
20260503220832 22 12 16.1 19.3 0.00 0.00 0.00 31 1009.2
20260503220329 22 23 20.9 27.4 0.00 0.00 0.00 30 1009.2
20260503215825 22 50 6.4 8.0 0.00 0.00 0.00 32 1009.3
20260503215323 22 343 9.7 14.5 0.00 0.00 0.00 30 1009.4
20260503214821 22 339 11.3 16.1 0.00 0.00 0.00 31 1009.4
20260503214318 22 0 14.5 19.3 0.00 0.00 0.00 31 1009.5
20260503213815 22 310 4.8 8.0 0.00 0.00 0.00 33 1009.6
20260503213313 22 313 12.9 16.1 0.00 0.00 0.00 32 1009.7
20260503212809 22 322 14.5 19.3 0.00 0.00 0.00 32 1009.6
20260503212307 22 327 16.1 19.3 0.00 0.00 0.00 32 1009.9
20260503211759 22 193 9.7 14.5 0.00 0.00 0.00 32 1010.0
20260503211255 22 322 17.7 22.5 0.00 0.00 0.00 31 1009.9
20260503210755 21 315 17.7 24.1 0.00 0.00 0.00 32 1010.0
20260503210253 22 316 11.3 16.1 0.00 0.00 0.00 33 1010.2
20260503205748 22 341 20.9 30.6 0.00 0.00 0.00 33 1010.2
20260503205245 22 299 14.5 16.1 0.00 0.00 0.00 30 1010.4
20260503204741 21 323 11.3 22.5 0.00 0.00 0.00 34 1010.3
20260503204239 21 286 6.4 11.3 0.00 0.00 0.00 34 1010.5
20260503203736 22 290 16.1 19.3 0.00 0.00 0.00 31 1010.6
20260503203233 22 295 22.5 30.6 0.00 0.00 0.00 31 1010.6
20260503202730 22 19 12.9 19.3 0.00 0.00 0.00 31 1010.5
20260503202228 22 352 8.0 11.3 0.00 0.00 0.00 33 1010.6
20260503201726 22 324 8.0 14.5 0.00 0.00 0.00 32 1010.7
20260503201223 21 168 16.1 24.1 0.00 0.00 0.00 31 1011.0
20260503200719 21 232 9.7 11.3 0.00 0.00 0.00 33 1010.9
20260503200216 22 322 16.1 19.3 0.00 0.00 0.00 33 1011.0
20260503195713 21 285 8.0 11.3 0.00 0.00 0.00 37 1011.0
20260503195210 21 331 19.3 24.1 0.00 0.00 0.00 33 1011.1
20260503194707 22 333 16.1 22.5 0.00 0.00 0.00 34 1010.9
20260503194202 21 318 27.4 33.8 0.00 0.00 0.00 33 1011.0
20260503193659 21 339 19.3 22.5 0.00 0.00 0.00 33 1011.0
20260503193155 21 324 17.7 24.1 0.00 0.00 0.00 35 1011.2
20260503192651 21 15 19.3 24.1 0.00 0.00 0.00 34 1011.3
20260503192147 21 329 20.9 24.1 0.00 0.00 0.00 35 1011.4
20260503191644 21 34 6.4 11.3 0.00 0.00 0.00 37 1011.1
20260503191141 21 319 17.7 22.5 0.00 0.00 0.00 34 1011.4
20260503190637 21 41 14.5 19.3 0.00 0.00 0.00 34 1011.2
20260503190134 21 347 9.7 16.1 0.00 0.00 0.00 33 1011.5
20260503185631 21 334 17.7 24.1 0.00 0.00 0.00 33 1011.4
20260503185126 21 306 14.5 22.5 0.00 0.00 0.00 34 1011.5
20260503184621 21 329 19.3 30.6 0.00 0.00 0.00 34 1011.5
20260503184118 21 305 12.9 19.3 0.00 0.00 0.00 35 1011.5
20260503183609 21 62 6.4 14.5 0.00 0.00 0.00 37 1011.5
20260503183107 21 327 17.7 19.3 0.00 0.00 0.00 34 1011.9
20260503182605 20 349 27.4 35.4 0.00 0.00 0.00 34 1011.6
20260503182103 21 11 27.4 30.6 0.00 0.00 0.00 35 1012.0
20260503181559 20 344 4.8 4.8 0.00 0.00 0.00 38 1011.9
20260503181055 21 350 19.3 24.1 0.00 0.00 0.00 35 1012.0
20260503180553 21 36 22.5 30.6 0.00 0.00 0.00 34 1012.0
20260503180050 21 329 11.3 16.1 0.00 0.00 0.00 36 1012.1
20260503175547 21 321 9.7 14.5 0.00 0.00 0.00 36 1012.2
20260503175045 21 322 16.1 24.1 0.00 0.00 0.00 36 1012.3
20260503174541 20 23 16.1 22.5 0.00 0.00 0.00 37 1012.3
20260503174037 20 305 9.7 19.3 0.00 0.00 0.00 37 1012.3
20260503173533 20 43 11.3 16.1 0.00 0.00 0.00 36 1012.6
20260503173029 20 159 12.9 19.3 0.00 0.00 0.00 39 1012.6
20260503172527 20 72 8.0 14.5 0.00 0.00 0.00 38 1012.6
20260503172024 20 63 17.7 22.5 0.00 0.00 0.00 37 1012.7
20260503171520 20 2 14.5 16.1 0.00 0.00 0.00 37 1012.6
20260503171018 20 328 8.0 14.5 0.00 0.00 0.00 40 1012.4
20260503170514 20 270 16.1 22.5 0.00 0.00 0.00 38 1012.7